Date String (YYYY-MM-DD hh:mm:ss) UTC,Instrument flags,Ambient pressure (hPa),Sample flow (lpm),Bypass flow (lpm),Sample temperature (°C),Ambient temperature (°C),ASC tube jacket temperature (°C),LED temperature (°C),Box temperature (°C),Sample RH (%),Span deviation,Mass concentration (μg/m³),Mass concentration (μg/m³),Mass concentration (μg/m³)
DateTimeUTC,F1_M11,P_M11,Q1_M11,Q2_M11,T1_M11,T2_M11,T3_M11,T4_M11,T5_M11,U1_M11,ZSPAN_M11,X0_M11,X2_M11,X1_M11
2022-09-21 08:00:00,,0830.4,5.00,0.00,30.3,27.6,00.0,38.9,32.1,20.3,0000.0,0010.17,0004.07,0003.37
2022-09-21 08:01:00,,0830.4,5.00,0.00,30.2,26.3,00.0,38.8,32.0,20.4,0000.0,0010.31,0004.07,0003.37
2022-09-21 08:02:00,,0830.4,4.99,0.00,30.1,26.2,00.0,38.7,31.8,20.6,0000.0,0010.41,0004.08,0003.36
2022-09-21 08:03:00,,0830.3,4.99,0.00,30.0,26.5,00.0,38.7,31.6,20.8,0000.0,0010.20,0004.13,0003.36
2022-09-21 08:04:00,,0830.3,5.00,0.00,29.9,26.9,00.0,38.7,31.6,20.9,0000.0,0010.67,0004.19,0003.37
2022-09-21 08:05:00,,0830.4,5.00,0.00,29.9,27.3,00.0,38.7,31.5,20.9,0000.0,0010.70,0004.20,0003.37
2022-09-21 08:06:00,,0830.3,5.01,0.00,29.9,27.6,00.0,38.6,31.6,21.0,0000.0,0010.66,0004.19,0003.38
2022-09-21 08:07:00,,0830.4,4.99,0.00,29.8,27.8,00.0,38.6,31.6,21.1,0000.0,0010.99,0004.20,0003.40
2022-09-21 08:08:00,,0830.4,5.00,0.00,29.8,28.0,00.0,38.6,31.6,21.1,0000.0,0011.41,0004.21,0003.42
2022-09-21 08:09:00,,0830.3,5.02,0.00,29.8,28.2,00.0,38.6,31.6,21.1,0000.0,0012.13,0004.24,0003.43
2022-09-21 08:10:00,,0830.3,4.99,0.00,29.8,28.2,00.0,38.6,31.7,21.0,0000.0,0012.16,0004.27,0003.45
2022-09-21 08:11:00,,0830.2,5.00,0.00,29.9,28.4,00.0,38.6,31.7,21.1,0000.0,0011.93,0004.27,0003.47
2022-09-21 08:12:00,,0830.3,5.01,0.00,29.9,28.5,00.0,38.6,31.7,21.0,0000.0,0011.77,0004.28,0003.50
2022-09-21 08:13:00,,0830.3,4.99,0.00,29.9,28.6,00.0,38.6,31.7,21.0,0000.0,0011.55,0004.28,0003.54
2022-09-21 08:14:00,,0830.3,4.99,0.00,29.9,28.7,00.0,38.6,31.8,21.0,0000.0,0012.60,0004.30,0003.57
2022-09-21 08:15:00,,0830.3,5.01,0.00,29.9,28.7,00.0,38.6,31.8,21.0,0000.0,0012.52,0004.32,0003.61
2022-09-21 08:16:00,,0830.2,4.98,0.00,30.0,28.7,00.0,38.7,31.9,21.1,0000.0,0013.05,0004.39,0003.65
2022-09-21 08:17:00,,0830.3,5.01,0.00,30.0,28.8,00.0,38.7,31.9,21.1,0000.0,0013.38,0004.46,0003.69
2022-09-21 08:18:00,,0830.3,4.99,0.00,30.0,28.8,00.0,38.7,31.9,21.0,0000.0,0014.17,0004.57,0003.75
2022-09-21 08:19:00,,0830.3,5.00,0.00,30.1,28.9,00.0,38.7,32.0,21.0,0000.0,0014.81,0004.65,0003.79
2022-09-21 08:20:00,,0830.4,5.00,0.00,30.1,28.9,00.0,38.8,32.0,21.0,0000.0,0014.97,0004.66,0003.82
2022-09-21 08:21:00,,0830.4,5.00,0.00,30.1,29.0,00.0,38.8,32.0,21.0,0000.0,0016.08,0004.69,0003.83
2022-09-21 08:22:00,,0830.4,4.99,0.00,30.1,29.0,00.0,38.8,32.0,21.0,0000.0,0016.38,0004.70,0003.85
2022-09-21 08:23:00,,0830.4,5.01,0.00,30.2,29.1,00.0,38.8,32.1,20.9,0000.0,0016.44,0004.72,0003.86
2022-09-21 08:24:00,,0830.4,5.00,0.00,30.2,29.1,00.0,38.8,32.1,20.9,0000.0,0016.23,0004.77,0003.88
2022-09-21 08:25:00,,0830.4,5.02,0.00,30.2,29.1,00.0,38.9,32.1,20.9,0000.0,0015.20,0004.76,0003.89
2022-09-21 08:26:00,,0830.4,5.00,0.00,30.3,29.2,00.0,38.9,32.1,20.9,0000.0,0014.96,0004.78,0003.91
2022-09-21 08:27:00,,0830.4,4.99,0.00,30.3,29.2,00.0,38.9,32.2,20.9,0000.0,0014.69,0004.77,0003.93
2022-09-21 08:28:00,,0830.4,5.01,0.00,30.3,29.2,00.0,39.0,32.2,21.0,0000.0,0015.10,0004.80,0003.93
2022-09-21 08:29:00,,0830.4,4.99,0.00,30.4,29.2,00.0,39.0,32.2,21.0,0000.0,0013.90,0004.80,0003.93
2022-09-21 08:30:00,,0830.4,5.00,0.00,30.4,28.3,00.0,39.0,32.2,20.9,0000.0,0012.80,0004.82,0003.94
2022-09-21 08:31:00,,0830.4,5.00,0.00,30.3,26.7,00.0,38.9,32.0,21.0,0000.0,0011.83,0004.86,0003.96
2022-09-21 08:32:00,,0830.4,5.00,0.00,30.2,26.2,00.0,38.9,32.0,21.1,0000.0,0010.83,0004.87,0003.97
2022-09-21 08:33:00,,0830.4,5.00,0.00,30.1,26.4,00.0,38.8,31.7,21.3,0000.0,0010.83,0004.92,0004.00
2022-09-21 08:34:00,,0830.4,5.00,0.00,30.0,26.8,00.0,38.8,31.6,21.4,0000.0,0010.93,0004.96,0004.01
2022-09-21 08:35:00,,0830.4,5.00,0.00,30.0,27.2,00.0,38.7,31.6,21.6,0000.0,0010.97,0005.03,0004.04
2022-09-21 08:36:00,,0830.4,5.01,0.00,29.9,27.5,00.0,38.7,31.6,21.7,0000.0,0010.86,0005.10,0004.07
2022-09-21 08:37:00,,0830.4,4.99,0.00,29.9,27.8,00.0,38.7,31.6,21.7,0000.0,0011.11,0005.11,0004.09
2022-09-21 08:38:00,,0830.5,5.01,0.00,29.9,28.0,00.0,38.7,31.7,21.7,0000.0,0011.31,0005.16,0004.11
2022-09-21 08:39:00,,0830.4,4.99,0.00,29.9,28.2,00.0,38.7,31.7,21.8,0000.0,0011.31,0005.13,0004.12
2022-09-21 08:40:00,,0830.4,5.01,0.00,29.9,28.3,00.0,38.7,31.7,21.8,0000.0,0011.77,0005.13,0004.14
2022-09-21 08:41:00,,0830.4,5.00,0.00,29.9,28.4,00.0,38.7,31.8,21.8,0000.0,0012.29,0005.15,0004.15
2022-09-21 08:42:00,,0830.5,4.99,0.00,29.9,28.5,00.0,38.7,31.8,21.8,0000.0,0012.41,0005.12,0004.16
2022-09-21 08:43:00,,0830.5,5.00,0.00,30.0,28.6,00.0,38.7,31.8,21.7,0000.0,0012.67,0005.13,0004.16
2022-09-21 08:44:00,,0830.5,4.99,0.00,30.0,28.7,00.0,38.7,31.9,21.7,0000.0,0012.38,0005.15,0004.16
2022-09-21 08:45:00,,0830.6,5.01,0.00,30.0,28.7,00.0,38.7,31.9,21.7,0000.0,0012.47,0005.17,0004.18
2022-09-21 08:46:00,,0830.6,5.00,0.00,30.0,28.8,00.0,38.7,31.9,21.7,0000.0,0013.23,0005.13,0004.17
2022-09-21 08:47:00,,0830.6,5.00,0.00,30.0,28.8,00.0,38.7,31.9,21.7,0000.0,0013.26,0005.09,0004.17
2022-09-21 08:48:00,,0830.6,4.99,0.00,30.1,28.8,00.0,38.8,32.0,21.7,0000.0,0012.79,0005.06,0004.17
2022-09-21 08:49:00,,0830.6,5.01,0.00,30.1,28.9,00.0,38.8,32.0,21.7,0000.0,0012.49,0005.09,0004.18
2022-09-21 08:50:00,,0830.7,5.00,0.00,30.1,29.0,00.0,38.8,32.0,21.7,0000.0,0012.08,0005.14,0004.20
2022-09-21 08:51:00,,0830.6,4.99,0.00,30.1,29.0,00.0,38.8,32.0,21.7,-000.4,0011.59,0005.15,0004.21
2022-09-21 08:52:00,,0830.7,4.99,0.00,30.2,29.0,00.0,38.8,32.1,21.7,-000.1,0011.80,0005.22,0004.22
2022-09-21 08:53:00,,0830.7,5.01,0.00,30.2,29.1,00.0,38.9,32.1,21.7,0000.0,0011.96,0005.30,0004.24
2022-09-21 08:54:00,,0830.7,5.00,0.00,30.2,29.1,00.0,38.9,32.1,21.6,0000.0,0011.74,0005.33,0004.26
2022-09-21 08:55:00,,0830.8,5.00,0.00,30.3,29.2,00.0,38.9,32.2,21.5,0000.0,0011.98,0005.39,0004.29
2022-09-21 08:56:00,,0830.8,5.00,0.00,30.3,29.2,00.0,38.9,32.2,21.5,0000.0,0013.43,0005.42,0004.31
2022-09-21 08:57:00,,0830.8,4.99,0.00,30.3,29.2,00.0,39.0,32.2,21.5,0000.0,0013.95,0005.49,0004.34
2022-09-21 08:58:00,,0830.7,5.01,0.00,30.3,29.2,00.0,39.0,32.2,21.5,0000.0,0014.04,0005.56,0004.36
2022-09-21 08:59:00,,0830.8,4.99,0.00,30.4,29.2,00.0,39.0,32.3,21.5,0000.0,0014.52,0005.63,0004.39
